Wind_Speed
30 31 31 33 34 34 35 36 37 37 38 38 38 38 39 39 38 38 38 38 38 38 38 39 40 41 42 42 42 41 40 40 39 40 40 41 40 41 43 44 46 47 47
32 33 34 35 36 38 38 39 39 40 40 40 39 39 38 38 37 37 37 37 37 37 38 38 39 41 42 43 43 43 43 43 42 42 42 41 40 40 43 43 45 48 48
35 36 37 38 39 40 42 42 42 42 42 42 41 40 39 37 37 36 36 36 36 36 37 38 39 41 42 44 45 45 45 45 45 45 44 43 42 41 42 44 46 48 49
37 38 39 40 41 43 44 44 45 44 44 43 42 41 39 37 36 36 35 35 36 36 37 37 39 40 42 44 45 46 47 48 48 47 47 46 44 43 43 45 45 48 50
38 39 40 41 43 44 45 46 46 46 45 44 43 41 39 38 37 37 36 35 35 36 37 38 39 40 42 45 46 47 49 50 50 50 50 49 47 45 44 46 46 48 50
40 41 41 43 44 45 46 47 47 46 46 45 43 41 40 39 38 37 36 35 35 35 36 37 39 40 42 44 46 49 50 51 52 53 53 52 51 48 46 47 47 48 50
41 41 42 44 45 46 47 47 47 47 46 45 43 41 40 39 38 37 36 34 35 35 36 37 38 39 41 43 45 48 50 52 54 55 56 55 54 52 49 47 47 48 50
42 43 44 45 46 47 48 48 47 46 46 44 42 41 40 39 38 37 36 35 35 35 36 37 38 39 40 41 44 47 50 52 55 56 57 58 57 56 53 49 48 48 50
43 44 45 46 47 48 48 48 47 46 45 44 42 41 40 39 38 37 36 35 34 34 35 36 37 38 40 41 43 45 48 52 55 58 59 59 59 58 57 53 51 51 50
44 45 46 47 48 49 48 47 46 45 44 43 42 40 39 39 38 37 36 34 33 33 33 34 35 36 38 40 41 44 47 50 54 58 61 62 61 60 59 56 54 52 51
45 46 48 49 50 50 48 47 45 44 43 42 41 40 39 38 37 35 34 33 32 32 32 32 32 33 35 37 39 42 46 50 54 58 61 63 63 63 62 60 56 55 53
47 48 50 51 51 49 47 45 44 43 42 41 40 38 38 37 36 34 33 32 31 29 29 29 29 29 31 33 35 39 44 49 53 57 60 63 64 64 64 63 60 56 54
50 51 52 51 51 49 46 44 43 42 41 40 38 37 36 36 35 34 32 31 28 27 26 26 25 25 26 28 31 35 39 45 50 54 57 60 63 65 66 65 63 60 57
52 52 52 51 50 48 45 43 42 41 39 38 37 36 35 35 34 33 31 28 26 25 23 21 20 20 21 23 25 29 34 40 46 51 55 59 62 65 67 67 66 64 61
54 54 53 51 49 47 44 42 41 40 38 37 36 35 34 33 32 31 29 27 24 22 20 19 17 17 17 17 18 22 27 35 41 47 52 56 60 63 66 67 67 66 65
55 54 52 50 48 45 42 41 40 38 37 36 35 34 33 33 31 30 28 26 22 20 19 17 15 14 14 13 13 15 20 27 34 41 46 51 55 59 63 66 67 66 65
56 54 51 49 46 43 40 38 37 37 36 35 35 34 33 32 31 28 26 25 22 19 17 16 14 13 12 11 9 10 13 19 27 34 40 44 49 54 59 63 65 65 64
56 53 50 47 44 41 39 37 36 35 34 34 34 33 33 32 30 27 25 23 20 18 16 15 13 11 10 8 7 8 10 15 21 28 33 38 43 47 53 58 61 62 62
54 51 48 45 42 39 38 37 36 35 33 32 32 32 32 31 29 26 24 21 19 17 15 13 12 10 9 7 5 7 10 14 18 24 27 31 36 41 46 52 56 59 60
52 49 46 43 40 38 37 36 35 33 32 32 31 30 30 30 28 25 23 21 19 16 13 12 10 9 8 7 6 7 10 13 17 22 24 27 31 36 41 47 52 55 56
50 47 44 41 39 37 35 34 33 32 31 31 31 30 30 29 27 24 22 21 19 16 13 11 10 9 8 8 8 8 10 13 16 20 23 25 29 33 37 42 48 51 53
48 45 41 39 36 34 33 33 31 30 30 30 30 29 28 27 26 23 22 20 18 15 13 12 11 11 9 8 9 10 11 12 15 19 22 24 28 32 35 39 44 49 51
45 42 39 36 34 32 32 31 30 29 29 29 28 27 26 25 24 23 21 19 16 14 12 12 11 11 12 12 11 11 12 14 15 18 20 23 27 32 34 37 42 45 49
42 39 36 34 32 31 30 29 28 27 27 27 26 25 24 24 22 21 21 19 16 13 12 12 12 12 12 12 12 12 13 15 16 17 20 22 26 30 34 36 39 43 47
38 35 33 31 29 29 28 26 25 25 25 24 24 23 22 21 21 20 20 18 15 13 12 11 11 12 13 13 13 13 14 15 17 18 20 22 24 27 31 35 38 41 45
34 32 30 29 28 27 25 23 23 23 22 22 22 21 20 19 19 19 19 17 15 13 11 10 10 10 11 13 13 14 15 16 17 18 19 21 23 26 28 32 35 39 42
Wind_Direction
339 339 338 336 335 333 332 330 327 325 322 319 315 310 305 301 296 291 286 281 276 271 265 259 255 251 248 245 243 241 239 237 234 233 233 230 229 227 223 221 220 218 218
337 337 337 336 335 334 332 331 329 326 324 320 317 312 307 302 298 293 288 283 277 272 266 261 255 251 248 245 242 240 239 236 234 231 231 230 228 226 223 221 220 217 217
335 335 335 335 334 333 332 330 329 327 325 322 319 315 309 304 299 295 290 285 279 273 267 262 256 252 249 245 243 241 238 236 234 230 230 230 228 226 223 221 220 218 217
334 334 334 333 332 331 330 329 328 327 325 323 320 316 312 307 302 297 293 287 281 275 270 264 259 254 250 246 244 241 239 236 233 231 229 228 227 225 223 220 218 218 216
333 332 332 331 331 330 329 328 327 326 324 323 320 316 312 308 304 299 295 290 284 279 273 267 262 257 252 248 245 242 239 235 232 230 229 228 227 226 223 219 217 216 215
331 331 330 330 329 329 328 327 326 325 324 323 320 317 313 310 306 301 297 292 287 282 276 270 265 259 254 250 246 242 239 235 231 229 228 227 226 225 224 220 218 216 215
330 330 330 329 328 327 327 326 325 324 323 322 320 317 314 311 308 304 300 295 290 284 279 273 268 262 256 251 247 243 239 234 231 228 227 226 224 224 223 221 218 217 215
329 329 329 328 327 326 326 325 324 324 323 322 320 318 316 313 310 307 303 299 294 287 281 275 270 266 260 253 248 243 239 235 231 228 227 225 223 222 222 222 219 216 215
329 329 328 328 327 325 324 324 323 323 323 322 321 319 317 315 313 309 305 302 298 292 286 279 272 266 261 254 249 244 239 235 231 228 225 224 223 221 220 220 219 216 215
329 329 328 327 326 325 324 323 323 323 323 323 321 320 319 318 315 311 307 304 300 296 291 285 276 267 261 256 251 245 239 235 231 228 225 223 222 220 218 218 217 217 217
328 328 327 326 325 324 323 322 322 323 324 323 322 321 320 320 318 313 310 306 303 299 294 288 280 270 262 257 252 246 239 235 231 227 224 222 220 218 218 216 216 216 215
327 326 325 325 324 324 323 322 322 323 324 324 324 323 322 322 320 317 314 311 308 303 298 292 283 274 266 261 254 247 239 234 230 227 224 222 220 218 217 216 215 214 213
326 326 325 324 323 324 323 322 323 324 325 325 325 324 324 323 322 319 316 314 311 307 304 299 290 280 271 264 256 248 241 233 228 226 223 221 219 217 215 214 214 213 211
326 326 325 324 324 324 323 323 323 324 325 326 326 325 325 324 324 322 319 316 313 312 309 305 298 288 280 271 261 249 239 232 226 223 221 219 218 216 215 214 213 213 213
325 325 325 325 324 324 323 323 323 324 324 326 327 326 326 325 325 324 322 319 315 313 311 308 304 298 289 277 263 248 238 229 223 220 219 217 216 215 214 213 213 213 213
324 325 325 325 325 324 324 323 324 324 325 327 328 328 327 327 326 325 324 322 317 313 309 308 306 305 297 282 268 249 234 224 218 216 215 215 214 214 213 212 212 212 212
323 324 324 324 325 325 324 323 324 325 326 327 328 329 328 327 326 324 323 322 318 313 309 305 303 305 305 292 271 248 228 216 212 210 210 211 211 212 212 212 212 211 211
321 322 323 323 324 324 324 324 324 325 325 326 327 328 329 329 327 325 323 321 317 312 309 306 302 300 304 300 269 234 214 206 203 202 204 207 209 211 210 210 211 212 212
318 320 321 322 322 322 322 322 323 324 325 325 326 327 329 329 329 326 324 322 318 313 307 302 300 295 292 287 263 228 211 202 200 200 202 204 206 208 209 209 209 211 211
316 318 319 320 320 320 320 321 322 324 325 326 326 327 327 329 329 326 323 321 317 310 303 297 295 291 282 270 253 230 216 208 205 202 202 203 205 205 206 207 207 209 210
313 315 316 317 318 319 319 320 321 323 325 326 326 326 327 329 329 327 324 322 318 310 299 290 286 283 274 260 246 232 218 212 209 206 205 204 203 203 204 205 205 205 207
310 311 313 315 316 316 318 319 320 322 324 325 327 328 328 329 330 328 326 323 316 308 297 285 280 276 269 255 240 231 220 213 210 208 207 205 202 200 201 203 204 205 204
307 308 309 311 312 313 315 317 319 321 323 325 326 329 330 331 332 333 330 326 317 306 294 281 273 268 260 251 242 231 222 215 211 209 208 206 204 202 201 203 204 203 203
303 305 307 307 308 309 312 314 317 320 322 325 327 329 331 333 334 335 333 329 320 308 298 286 273 264 255 247 241 233 223 216 214 210 207 207 205 204 204 202 201 201 201
299 300 302 304 304 305 308 311 314 318 322 325 327 330 332 335 338 338 338 334 326 316 304 293 277 262 253 246 239 232 224 219 216 211 206 205 205 203 203 202 201 201 201
295 295 297 300 301 302 304 308 312 317 320 324 327 330 332 335 339 341 341 340 336 328 314 299 283 265 252 243 237 229 221 217 214 211 208 205 204 204 204 204 202 201 201
Height
5789 5784 5779 5774 5769 5764 5759 5754 5749 5743 5738 5732 5727 5721 5716 5712 5708 5705 5703 5701 5701 5700 5701 5702 5704 5705 5708 5712 5715 5720 5724 5728 5733 5737 5741 5745 5750 5754 5760 5766 5772 5778 5785
5784 5779 5773 5768 5763 5757 5752 5746 5741 5735 5729 5723 5717 5711 5706 5701 5697 5694 5691 5689 5688 5688 5688 5689 5691 5693 5696 5699 5703 5707 5712 5717 5722 5727 5731 5735 5740 5745 5750 5756 5762 5768 5775
5778 5773 5767 5761 5756 5750 5744 5738 5732 5726 5719 5713 5707 5701 5695 5691 5686 5683 5680 5677 5676 5675 5675 5676 5678 5680 5683 5686 5690 5694 5699 5704 5710 5716 5720 5725 5730 5735 5741 5746 5752 5759 5765
5772 5766 5760 5754 5748 5742 5736 5729 5723 5716 5710 5703 5696 5690 5685 5680 5676 5672 5669 5666 5664 5663 5663 5663 5664 5666 5669 5672 5676 5681 5686 5691 5697 5704 5709 5715 5720 5726 5731 5737 5743 5749 5755
5765 5759 5753 5747 5741 5734 5727 5721 5714 5707 5700 5693 5686 5680 5674 5669 5665 5660 5657 5654 5652 5650 5649 5649 5650 5652 5655 5658 5661 5666 5671 5677 5683 5690 5697 5704 5710 5716 5722 5728 5733 5739 5746
5758 5752 5746 5739 5733 5726 5719 5712 5705 5697 5690 5683 5676 5670 5664 5658 5653 5649 5645 5642 5639 5637 5636 5635 5636 5637 5640 5642 5646 5650 5656 5662 5669 5676 5684 5691 5698 5705 5711 5717 5723 5730 5738
5752 5745 5739 5732 5725 5717 5710 5703 5695 5688 5680 5672 5665 5659 5653 5647 5642 5637 5633 5630 5627 5624 5622 5621 5621 5622 5624 5627 5630 5634 5640 5646 5654 5662 5670 5678 5686 5694 5700 5707 5714 5720 5728
5744 5738 5731 5723 5716 5708 5701 5693 5685 5678 5670 5662 5655 5648 5642 5636 5630 5626 5621 5617 5614 5611 5609 5607 5607 5607 5608 5611 5614 5619 5624 5631 5638 5646 5656 5663 5671 5679 5688 5696 5703 5710 5717
5737 5730 5722 5715 5707 5699 5691 5683 5676 5668 5660 5652 5645 5638 5632 5625 5619 5614 5609 5605 5601 5598 5595 5593 5592 5592 5592 5594 5599 5603 5608 5614 5621 5629 5638 5647 5656 5666 5676 5684 5692 5700 5707
5729 5721 5714 5706 5698 5690 5682 5674 5666 5658 5650 5642 5635 5628 5621 5615 5609 5603 5598 5593 5589 5585 5582 5579 5577 5576 5577 5578 5582 5587 5592 5598 5603 5612 5621 5631 5641 5652 5662 5672 5681 5690 5698
5720 5713 5705 5697 5689 5681 5673 5664 5657 5649 5641 5633 5626 5618 5612 5605 5599 5593 5587 5582 5578 5574 5570 5566 5563 5562 5562 5563 5566 5570 5575 5579 5586 5595 5605 5615 5626 5638 5649 5660 5670 5680 5689
5712 5704 5696 5688 5680 5671 5663 5655 5647 5640 5632 5624 5616 5609 5602 5596 5590 5583 5577 5572 5567 5563 5558 5554 5551 5550 5549 5550 5551 5554 5557 5562 5570 5579 5589 5600 5612 5624 5636 5647 5658 5668 5678
5702 5694 5686 5678 5669 5661 5654 5646 5638 5630 5623 5615 5608 5601 5594 5587 5581 5574 5568 5563 5558 5553 5549 5545 5541 5539 5538 5537 5538 5539 5542 5547 5555 5564 5575 5586 5597 5609 5620 5632 5644 5655 5666
5693 5685 5676 5668 5659 5651 5644 5637 5629 5622 5615 5607 5600 5593 5586 5579 5573 5567 5560 5555 5550 5545 5541 5537 5533 5531 5528 5527 5526 5527 5529 5534 5541 5550 5559 5570 5580 5592 5605 5618 5631 5643 5654
5683 5675 5667 5658 5650 5642 5634 5627 5621 5614 5607 5600 5593 5586 5579 5573 5566 5560 5554 5548 5543 5539 5535 5531 5528 5524 5521 5519 5517 5517 5519 5523 5529 5537 5546 5556 5567 5580 5592 5605 5618 5630 5643
5674 5665 5657 5649 5641 5633 5626 5619 5612 5606 5599 5593 5586 5579 5573 5566 5559 5553 5548 5542 5537 5533 5530 5526 5523 5520 5516 5514 5512 5511 5512 5515 5520 5527 5536 5546 5557 5569 5581 5594 5606 5619 5631
5663 5656 5647 5640 5632 5625 5618 5612 5605 5598 5591 5585 5579 5573 5566 5560 5553 5547 5542 5537 5532 5529 5525 5522 5519 5516 5513 5510 5509 5508 5508 5511 5515 5521 5529 5538 5548 5559 5571 5583 5596 5608 5620
5653 5646 5638 5631 5624 5617 5611 5605 5599 5592 5586 5579 5573 5567 5560 5554 5548 5542 5537 5532 5528 5524 5521 5518 5516 5514 5511 5509 5507 5507 5508 5510 5514 5519 5526 5534 5543 5552 5563 5575 5587 5599 5610
5643 5636 5629 5622 5616 5609 5603 5598 5592 5585 5580 5573 5567 5561 5555 5548 5542 5537 5532 5528 5523 5520 5517 5515 5513 5511 5510 5509 5508 5507 5508 5511 5514 5519 5524 5531 5539 5547 5557 5567 5579 5590 5602
5633 5626 5620 5614 5607 5601 5596 5590 5584 5579 5573 5567 5561 5555 5549 5543 5538 5532 5528 5523 5519 5516 5514 5512 5511 5509 5508 5508 5508 5508 5509 5511 5514 5518 5523 5529 5535 5543 5551 5561 5571 5583 5594
5622 5616 5611 5605 5599 5594 5588 5583 5578 5572 5567 5561 5555 5550 5544 5538 5533 5528 5523 5519 5515 5512 5510 5509 5508 5507 5507 5506 5507 5507 5508 5510 5513 5517 5521 5527 5532 5539 5547 5556 5565 5575 5586
5611 5606 5601 5596 5591 5586 5581 5576 5571 5566 5561 5556 5550 5545 5539 5534 5528 5523 5519 5515 5511 5508 5506 5505 5505 5504 5504 5504 5505 5506 5507 5509 5511 5515 5519 5524 5529 5536 5543 5551 5560 5569 5579
5601 5596 5592 5588 5583 5579 5574 5570 5565 5560 5556 5551 5545 5540 5535 5529 5524 5519 5515 5511 5507 5505 5503 5501 5501 5501 5501 5502 5502 5503 5505 5507 5510 5513 5517 5521 5527 5533 5539 5547 5555 5564 5574
5590 5586 5583 5579 5575 5571 5567 5563 5559 5555 5550 5546 5541 5536 5531 5526 5521 5516 5512 5507 5504 5501 5499 5498 5497 5497 5497 5498 5499 5500 5502 5505 5507 5510 5514 5518 5523 5529 5536 5543 5551 5559 5568
5579 5576 5573 5570 5567 5564 5560 5557 5553 5549 5545 5541 5537 5532 5527 5523 5518 5513 5509 5505 5501 5498 5495 5494 5493 5493 5493 5494 5495 5497 5499 5502 5505 5508 5511 5516 5520 5526 5532 5539 5546 5554 5563
5569 5567 5564 5562 5559 5556 5553 5551 5548 5544 5541 5537 5533 5529 5524 5520 5516 5511 5507 5502 5498 5495 5492 5490 5489 5489 5489 5490 5491 5494 5496 5499 5502 5505 5508 5513 5517 5523 5528 5535 5542 5550 5558